period_start,C,m1,H,J0,J1,J2,J3,J4,J5,JA,JB,JC,JD,JJ,JK,JN,#
2016-01-20 00:01:49,-0.01,2.54,0.00,12.85,17.24,20.94,15.52,49.41,1041.51,2070.22,2660.90,2556.97,2866.00,600.05,632.37,37.21,0000 0000 0000 0000 000000
2016-01-20 00:06:50,0.02,2.54,0.00,12.87,17.24,20.94,15.52,49.45,1041.42,2070.16,2660.24,2556.83,2865.99,600.12,632.27,37.26,0000 0000 0000 0000 000000
2016-01-20 00:11:51,0.07,2.54,0.00,12.89,17.24,20.95,15.54,49.41,1041.26,2070.29,2660.00,2556.16,2865.61,600.21,632.30,37.31,0000 0000 0000 0000 000000
2016-01-20 00:16:52,0.00,2.54,0.00,12.88,17.24,20.97,15.46,49.33,1041.23,2070.28,2659.67,2556.01,2865.06,599.93,631.96,37.36,0000 0000 0000 0000 000000
2016-01-20 00:21:53,0.02,2.54,0.00,12.87,17.24,20.93,15.54,49.52,1041.39,2070.26,2658.99,2555.86,2864.94,600.14,632.33,37.41,0000 0000 0000 0000 000000
2016-01-20 00:26:55,0.06,2.55,0.00,12.88,17.22,20.92,15.45,49.36,1041.33,2070.32,2658.24,2555.17,2864.30,600.14,632.32,37.47,0000 0000 0000 0000 000000
2016-01-20 00:31:56,0.04,2.55,0.00,12.89,17.22,20.95,15.52,49.48,1041.47,2070.63,2657.98,2555.01,2864.00,600.03,632.20,37.52,0000 0000 0000 0000 000000
2016-01-20 00:36:58,0.02,2.55,0.00,12.88,17.22,20.94,15.53,49.58,1041.45,2070.38,2657.11,2554.64,2863.68,600.12,632.18,37.57,0000 0000 0000 0000 000000
2016-01-20 00:41:59,0.05,2.55,0.00,12.88,17.22,20.94,15.43,49.40,1041.46,2070.62,2656.84,2554.05,2863.04,599.86,631.99,37.62,0000 0000 0000 0000 000000
2016-01-20 00:47:00,0.04,2.56,0.00,12.87,17.23,20.97,15.63,49.52,1041.47,2070.69,2656.03,2553.93,2862.79,600.06,632.26,37.67,0000 0000 0000 0000 000000
2016-01-20 00:52:02,0.05,2.56,0.00,12.87,17.24,20.93,15.50,49.38,1041.47,2070.71,2655.38,2553.15,2862.06,600.09,632.37,37.72,0000 0000 0000 0000 000000
2016-01-20 00:57:03,0.02,2.56,0.00,12.88,17.24,20.97,15.45,49.25,1041.52,2070.59,2654.46,2552.88,2861.54,599.93,631.96,37.77,0000 0000 0000 0000 000000
2016-01-20 01:02:05,0.04,2.56,0.00,12.89,17.24,20.95,15.45,49.43,1041.51,2070.55,2653.68,2552.10,2861.01,600.02,632.21,37.82,0000 0000 0000 0000 000000
2016-01-20 01:07:06,0.04,2.56,0.00,12.89,17.24,20.95,15.38,49.33,1041.51,2070.61,2653.02,2552.00,2860.83,600.02,632.22,37.87,0000 0000 0000 0000 000000
2016-01-20 01:12:07,0.03,2.57,0.00,12.89,17.25,20.97,15.56,49.39,1041.50,2070.67,2652.83,2551.80,2860.08,600.03,632.14,37.92,0000 0000 0000 0000 000000
2016-01-20 01:17:09,0.05,2.57,0.00,12.90,17.27,20.96,15.34,49.40,1041.51,2070.84,2652.08,2551.10,2859.99,600.09,632.24,37.97,0000 0000 0000 0000 000000
2016-01-20 01:22:10,-0.01,2.57,0.00,12.89,17.27,20.99,15.46,49.38,1041.52,2070.56,2652.00,2550.99,2859.44,600.11,632.33,38.02,0000 0000 0000 0000 000000
2016-01-20 01:27:11,0.02,2.57,0.00,12.89,17.27,21.02,15.47,49.39,1041.52,2070.46,2651.84,2550.72,2859.00,600.03,632.24,38.07,0000 0000 0000 0000 000000
2016-01-20 01:32:13,0.02,2.57,0.00,12.91,17.27,21.03,15.51,49.48,1041.51,2070.27,2651.03,2550.04,2858.41,599.84,632.08,38.12,0000 0000 0000 0000 000000
2016-01-20 01:37:14,0.04,2.57,0.00,12.91,17.27,20.99,15.43,49.58,1041.42,2070.09,2650.25,2549.65,2857.98,599.95,632.08,38.17,0000 0000 0000 0000 000000
2016-01-20 01:42:15,0.04,2.57,0.00,12.90,17.27,21.00,15.52,49.35,1041.37,2070.10,2649.46,2549.03,2857.41,600.23,632.35,38.22,0000 0000 0000 0000 000000
2016-01-20 01:47:16,0.05,2.58,0.00,12.90,17.27,21.01,15.46,49.42,1041.43,2070.09,2648.82,2548.63,2856.69,599.88,632.01,38.27,0000 0000 0000 0000 000000
2016-01-20 01:52:18,0.04,2.58,0.00,12.91,17.27,21.02,15.49,49.38,1041.22,2070.04,2647.82,2547.98,2855.92,600.04,632.06,38.32,0000 0000 0000 0000 000000
2016-01-20 01:57:19,0.08,2.58,0.00,12.92,17.27,20.99,15.49,49.31,1041.10,2070.05,2646.72,2547.15,2855.05,600.33,632.27,38.38,0000 0000 0000 0000 000000
2016-01-20 02:02:21,0.08,2.59,0.00,12.92,17.27,20.98,15.50,49.41,1041.16,2070.03,2645.17,2546.32,2854.17,600.33,632.27,38.43,0000 0000 0000 0000 000000
2016-01-20 02:07:22,0.03,2.59,0.00,12.93,17.25,20.99,15.47,49.40,1041.12,2070.03,2644.02,2545.89,2853.76,600.09,632.06,38.48,0000 0000 0000 0000 000000
2016-01-20 02:12:23,0.07,2.59,0.00,12.94,17.24,21.00,15.39,49.33,1041.06,2070.16,2643.42,2545.19,2853.05,599.61,631.59,38.53,0000 0000 0000 0000 000000
2016-01-20 02:17:25,0.04,2.59,0.00,12.92,17.24,20.94,15.47,49.39,1041.03,2070.22,2642.59,2544.94,2852.64,599.86,631.66,38.58,0000 0000 0000 0000 000000
2016-01-20 02:22:26,0.08,2.60,0.00,12.92,17.24,20.99,15.51,49.42,1041.03,2070.40,2641.61,2544.17,2852.02,600.24,632.08,38.63,0000 0000 0000 0000 000000
2016-01-20 02:27:28,0.04,2.60,0.00,12.94,17.24,20.96,15.49,49.48,1041.03,2070.62,2640.95,2544.00,2851.66,600.05,632.10,38.68,0000 0000 0000 0000 000000
2016-01-20 02:32:29,0.06,2.60,0.00,12.94,17.24,20.97,15.51,49.35,1041.03,2070.68,2640.13,2543.37,2851.03,599.97,631.80,38.73,0000 0000 0000 0000 000000
2016-01-20 02:37:31,0.04,2.61,0.00,12.93,17.24,21.01,15.54,49.57,1041.03,2070.85,2639.66,2543.00,2850.70,600.28,632.12,38.78,0000 0000 0000 0000 000000
2016-01-20 02:42:32,0.03,2.61,0.00,12.93,17.24,20.98,15.58,49.36,1041.03,2070.80,2639.05,2542.60,2850.04,600.27,632.06,38.83,0000 0000 0000 0000 000000
2016-01-20 02:47:34,0.04,2.61,0.00,12.95,17.24,20.96,15.47,49.33,1041.03,2070.79,2638.36,2542.01,2849.57,600.10,631.83,38.88,0000 0000 0000 0000 000000
2016-01-20 02:52:35,0.02,2.61,0.00,12.96,17.25,21.05,15.50,49.48,1041.03,2070.65,2637.68,2541.63,2849.01,599.79,631.54,38.93,0000 0000 0000 0000 000000
2016-01-20 02:57:36,0.03,2.61,0.00,12.96,17.26,21.00,15.37,49.53,1041.02,2070.56,2637.02,2541.03,2848.50,599.83,631.62,38.98,0000 0000 0000 0000 000000
2016-01-20 03:02:38,0.03,2.62,0.00,12.97,17.27,21.03,15.47,49.38,1041.02,2070.52,2636.65,2540.96,2848.01,599.78,631.39,39.03,0000 0000 0000 0000 000000
2016-01-20 03:07:39,0.02,2.62,0.00,12.97,17.27,21.04,15.46,49.46,1040.97,2070.45,2636.37,2540.44,2847.71,599.98,631.79,39.08,0000 0000 0000 0000 000000
2016-01-20 03:12:40,0.02,2.62,0.00,12.96,17.28,21.05,15.50,49.36,1040.94,2070.19,2635.44,2539.99,2847.02,600.16,631.88,39.13,0000 0000 0000 0000 000000
2016-01-20 03:17:42,0.06,2.62,0.00,12.98,17.29,21.07,15.52,49.40,1040.94,2070.15,2634.64,2539.35,2846.60,600.24,631.86,39.18,0000 0000 0000 0000 000000
2016-01-20 03:22:43,0.01,2.62,0.00,12.99,17.29,21.07,15.45,49.29,1040.97,2070.13,2634.05,2539.01,2846.02,599.81,631.47,39.24,0000 0000 0000 0000 000000
2016-01-20 03:27:44,0.05,2.62,0.00,12.99,17.29,21.09,15.42,49.33,1041.02,2070.11,2633.45,2538.59,2845.51,599.60,631.35,39.29,0000 0000 0000 0000 000000
2016-01-20 03:32:46,0.02,2.63,0.00,12.99,17.29,21.05,15.51,49.37,1041.02,2070.09,2632.99,2538.02,2845.01,600.11,631.79,39.34,0000 0000 0000 0000 000000
2016-01-20 03:37:47,0.03,2.63,0.00,12.97,17.29,21.07,15.50,49.77,1040.97,2070.12,2632.67,2537.94,2844.57,599.97,631.79,39.39,0000 0000 0000 0000 000000
2016-01-20 03:42:48,0.04,2.63,0.00,12.99,17.29,21.01,15.46,49.42,1040.85,2070.12,2632.00,2537.23,2844.02,599.97,631.43,39.44,0000 0000 0000 0000 000000
2016-01-20 03:47:50,0.03,2.63,0.00,12.98,17.28,21.00,15.57,49.46,1040.77,2070.07,2631.30,2537.00,2843.70,600.72,632.27,39.49,0000 0000 0000 0000 000000
2016-01-20 03:52:51,0.05,2.63,0.00,12.98,17.27,21.01,15.42,49.24,1040.64,2070.09,2630.66,2536.57,2843.05,599.88,631.42,39.54,0000 0000 0000 0000 000000
2016-01-20 03:57:52,0.02,2.64,0.00,12.98,17.27,21.02,15.45,49.13,1040.58,2070.12,2630.03,2536.03,2842.86,599.94,631.41,39.59,0000 0000 0000 0000 000000
2016-01-20 04:02:53,0.04,2.64,0.00,13.00,17.27,21.02,15.50,49.27,1040.64,2070.31,2629.67,2535.95,2842.11,599.96,631.41,39.64,0000 0000 0000 0000 000000
2016-01-20 04:07:54,0.04,2.64,0.00,12.99,17.26,21.00,15.37,49.23,1040.68,2070.20,2628.85,2535.26,2841.90,600.02,631.40,39.69,0000 0000 0000 0000 000000
2016-01-20 04:12:56,0.04,2.64,0.00,13.00,17.25,20.97,15.47,49.34,1040.60,2070.27,2627.87,2534.87,2841.11,600.08,631.55,39.74,0000 0000 0000 0000 000000
2016-01-20 04:17:57,0.07,2.65,0.00,13.00,17.24,20.98,15.40,49.38,1040.62,2070.44,2627.05,2534.13,2840.88,599.61,631.01,39.79,0000 0000 0000 0000 000000
2016-01-20 04:22:58,0.04,2.65,0.00,12.99,17.24,20.96,15.47,49.38,1040.63,2070.70,2626.89,2533.98,2840.11,599.85,631.51,39.84,0000 0000 0000 0000 000000
2016-01-20 04:28:00,0.06,2.65,0.00,13.02,17.24,20.95,15.53,49.35,1040.68,2070.87,2626.10,2533.46,2839.97,600.18,631.55,39.89,0000 0000 0000 0000 000000
2016-01-20 04:33:01,0.02,2.65,0.00,13.04,17.25,20.96,15.47,49.40,1040.75,2070.77,2625.65,2533.02,2839.22,599.85,631.27,39.94,0000 0000 0000 0000 000000
2016-01-20 04:38:02,0.02,2.65,0.00,13.05,17.27,21.01,15.47,49.24,1040.90,2070.67,2625.03,2532.75,2838.91,599.83,631.21,39.99,0000 0000 0000 0000 000000
2016-01-20 04:43:04,0.05,2.66,0.00,13.04,17.27,21.00,15.39,49.27,1041.00,2070.65,2624.62,2532.06,2838.13,599.71,631.44,40.04,0000 0000 0000 0000 000000
2016-01-20 04:48:05,0.01,2.66,0.00,13.05,17.27,21.05,15.48,49.39,1040.96,2070.55,2623.86,2531.85,2837.88,600.24,631.78,40.09,0000 0000 0000 0000 000000
2016-01-20 04:53:06,0.07,2.66,0.00,13.03,17.27,21.01,15.41,49.21,1040.94,2070.75,2623.65,2531.15,2837.13,600.09,631.57,40.15,0000 0000 0000 0000 000000
2016-01-20 04:58:08,0.01,2.66,0.00,13.04,17.28,21.05,15.49,49.32,1041.00,2070.73,2623.33,2531.00,2836.93,600.24,631.84,40.20,0000 0000 0000 0000 000000
2016-01-20 05:03:09,0.04,2.66,0.00,13.08,17.28,21.04,15.44,49.48,1040.94,2070.49,2622.72,2530.60,2836.17,600.14,631.73,40.25,0000 0000 0000 0000 000000
2016-01-20 05:08:10,0.03,2.67,0.00,13.04,17.28,21.07,15.39,49.30,1040.77,2070.45,2621.68,2530.01,2835.87,599.67,631.13,40.30,0000 0000 0000 0000 000000
2016-01-20 05:13:12,0.05,2.67,0.00,13.05,17.28,21.09,15.50,49.26,1040.61,2070.39,2620.95,2529.43,2835.07,599.93,631.21,40.35,0000 0000 0000 0000 000000
2016-01-20 05:18:13,0.04,2.67,0.00,13.07,17.29,21.01,15.44,49.29,1040.60,2070.54,2620.15,2529.00,2834.86,599.99,631.31,40.40,0000 0000 0000 0000 000000
2016-01-20 05:23:14,0.03,2.67,0.00,13.06,17.29,21.03,15.44,49.24,1040.60,2070.46,2619.98,2528.67,2834.06,599.89,631.35,40.45,0000 0000 0000 0000 000000
2016-01-20 05:28:15,0.03,2.67,0.00,13.05,17.29,21.04,15.40,49.27,1040.57,2070.45,2619.32,2528.05,2833.86,600.00,631.28,40.50,0000 0000 0000 0000 000000
2016-01-20 05:33:17,0.02,2.68,0.00,13.05,17.29,21.05,15.38,49.44,1040.56,2070.44,2618.97,2527.99,2833.12,599.69,630.98,40.55,0000 0000 0000 0000 000000
2016-01-20 05:38:18,0.03,2.68,0.00,13.06,17.29,21.04,15.40,49.27,1040.54,2070.41,2618.43,2527.73,2833.00,599.60,630.91,40.60,0000 0000 0000 0000 000000
2016-01-20 05:43:19,0.03,2.68,0.00,13.08,17.29,21.06,15.34,49.10,1040.54,2070.43,2618.01,2527.10,2832.68,599.68,630.83,40.65,0000 0000 0000 0000 000000
2016-01-20 05:48:21,0.02,2.68,0.00,13.09,17.31,21.08,15.46,49.29,1040.54,2070.38,2617.60,2526.98,2832.05,600.06,631.24,40.70,0000 0000 0000 0000 000000
2016-01-20 05:53:22,0.04,2.68,0.00,13.09,17.32,21.13,15.51,49.39,1040.54,2070.33,2617.00,2526.34,2831.90,600.19,631.36,40.75,0000 0000 0000 0000 000000
2016-01-20 05:58:23,0.02,2.68,0.00,13.07,17.32,21.14,15.41,49.33,1040.54,2070.15,2616.28,2525.99,2831.11,599.92,631.13,40.80,0000 0000 0000 0000 000000
2016-01-20 06:03:24,0.06,2.68,0.00,13.08,17.33,21.11,15.41,49.43,1040.54,2070.22,2615.76,2525.37,2830.80,600.07,631.18,40.85,0000 0000 0000 0000 000000
2016-01-20 06:08:25,0.01,2.69,0.00,13.08,17.34,21.10,15.42,49.41,1040.54,2070.25,2615.07,2525.00,2830.05,600.06,631.23,40.90,0000 0000 0000 0000 000000
2016-01-20 06:13:26,0.07,2.69,0.00,13.08,17.34,21.16,15.45,49.48,1040.54,2070.20,2614.52,2524.43,2829.53,600.18,631.40,40.95,0000 0000 0000 0000 000000
2016-01-20 06:18:28,0.01,2.69,0.00,13.10,17.34,21.13,15.40,49.51,1040.54,2070.15,2613.88,2523.99,2828.96,599.99,630.98,41.00,0000 0000 0000 0000 000000
2016-01-20 06:23:29,0.07,2.69,0.00,13.13,17.36,21.12,15.46,49.37,1040.54,2070.08,2613.06,2523.23,2828.12,599.83,630.81,41.06,0000 0000 0000 0000 000000
2016-01-20 06:28:31,0.02,2.70,0.00,13.11,17.37,21.14,15.38,49.31,1040.54,2070.07,2612.60,2522.98,2827.87,599.91,631.12,41.11,0000 0000 0000 0000 000000
2016-01-20 06:33:32,0.05,2.70,0.00,13.12,17.37,21.22,15.41,49.40,1040.54,2070.06,2611.88,2522.36,2827.11,599.87,630.98,41.16,0000 0000 0000 0000 000000
2016-01-20 06:38:33,0.04,2.70,0.00,13.14,17.38,21.21,15.47,49.56,1040.54,2070.02,2611.05,2521.89,2826.50,600.07,631.10,41.21,0000 0000 0000 0000 000000
2016-01-20 06:43:34,0.05,2.70,0.00,13.14,17.39,21.19,15.39,49.52,1040.54,2070.02,2610.27,2521.10,2825.92,600.00,631.09,41.26,0000 0000 0000 0000 000000
2016-01-20 06:48:36,0.02,2.70,0.00,13.16,17.39,21.19,15.49,49.43,1040.54,2070.01,2610.00,2520.95,2825.12,600.20,631.26,41.31,0000 0000 0000 0000 000000
2016-01-20 06:53:37,0.05,2.71,0.00,13.17,17.40,21.23,15.46,49.35,1040.54,2070.00,2609.32,2520.23,2824.92,599.86,630.79,41.36,0000 0000 0000 0000 000000
2016-01-20 06:58:38,0.04,2.71,0.00,13.17,17.41,21.21,15.53,49.39,1040.54,2070.01,2608.55,2519.97,2824.12,599.97,630.97,41.41,0000 0000 0000 0000 000000
2016-01-20 07:03:39,0.05,2.71,0.00,13.19,17.42,21.21,15.46,49.51,1040.54,2070.00,2607.90,2519.19,2823.71,599.82,630.73,41.46,0000 0000 0000 0000 000000
2016-01-20 07:08:41,0.05,2.71,0.00,13.19,17.42,21.20,15.46,49.48,1040.54,2070.00,2607.03,2518.75,2822.97,599.96,630.95,41.51,0000 0000 0000 0000 000000
2016-01-20 07:13:42,0.06,2.72,0.00,13.18,17.43,21.27,15.40,49.47,1040.54,2070.01,2606.14,2518.01,2822.14,599.94,630.93,41.56,0000 0000 0000 0000 000000
2016-01-20 07:18:43,0.07,2.72,0.00,13.19,17.44,21.21,15.49,49.56,1040.54,2070.01,2605.34,2517.26,2821.48,600.01,630.98,41.61,0000 0000 0000 0000 000000
2016-01-20 07:23:45,0.05,2.72,0.00,13.20,17.44,21.25,15.49,49.58,1040.54,2070.00,2604.60,2516.73,2820.71,600.27,631.28,41.66,0000 0000 0000 0000 000000
2016-01-20 07:28:46,0.06,2.73,0.00,13.19,17.45,21.24,15.43,49.42,1040.54,2070.00,2603.52,2515.92,2819.83,599.94,630.85,41.71,0000 0000 0000 0000 000000
2016-01-20 07:33:47,0.07,2.73,0.00,13.22,17.47,21.25,15.36,49.47,1040.54,2069.99,2602.50,2515.07,2818.98,599.76,630.66,41.76,0000 0000 0000 0000 000000
2016-01-20 07:38:49,0.07,2.73,0.00,13.22,17.47,21.26,15.42,49.57,1040.54,2069.99,2601.47,2514.35,2818.11,599.98,630.97,41.81,0000 0000 0000 0000 000000
2016-01-20 07:43:50,0.05,2.74,0.00,13.21,17.48,21.27,15.53,49.62,1040.54,2069.99,2600.86,2513.79,2817.34,600.09,631.02,41.86,0000 0000 0000 0000 000000
2016-01-20 07:48:52,0.05,2.74,0.00,13.23,17.49,21.29,15.51,49.51,1040.54,2069.99,2600.04,2513.02,2816.46,600.13,631.01,41.92,0000 0000 0000 0000 000000
2016-01-20 07:53:53,0.07,2.74,0.00,13.22,17.50,21.31,15.43,49.56,1040.54,2069.98,2599.00,2512.18,2815.70,600.08,631.01,41.97,0000 0000 0000 0000 000000
2016-01-20 07:58:54,0.09,2.75,0.00,13.21,17.52,21.32,15.42,49.58,1040.54,2069.99,2597.59,2511.35,2814.71,599.74,630.74,42.02,0000 0000 0000 0000 000000
2016-01-20 08:03:55,0.05,2.75,0.00,13.24,17.52,21.32,15.33,49.58,1040.54,2069.98,2596.81,2510.57,2813.82,599.82,630.73,42.07,0000 0000 0000 0000 000000
2016-01-20 08:08:56,0.10,2.75,0.00,13.26,17.52,21.33,15.48,49.63,1040.55,2069.97,2595.44,2509.56,2812.71,600.21,630.88,42.12,0000 0000 0000 0000 000000
2016-01-20 08:13:58,0.09,2.76,0.00,13.27,17.52,21.33,15.47,49.55,1040.55,2069.97,2593.90,2508.53,2811.59,600.00,630.81,42.17,0000 0000 0000 0000 000000
2016-01-20 08:18:59,0.09,2.76,0.00,13.28,17.52,21.32,15.40,49.50,1040.57,2069.97,2592.61,2507.52,2810.42,599.96,630.71,42.22,0000 0000 0000 0000 000000
2016-01-20 08:24:00,0.09,2.77,0.00,13.30,17.52,21.35,15.40,49.47,1040.55,2069.98,2591.33,2506.43,2809.19,599.99,630.66,42.27,0000 0000 0000 0000 000000
2016-01-20 08:29:01,0.10,2.78,0.00,13.29,17.54,21.30,15.43,49.48,1040.56,2069.97,2589.74,2505.26,2807.88,600.01,630.73,42.32,0000 0000 0000 0000 000000
2016-01-20 08:34:03,0.11,2.78,0.00,13.31,17.54,21.31,15.48,49.56,1040.59,2069.97,2588.00,2503.93,2806.47,599.97,630.61,42.37,0000 0000 0000 0000 000000
2016-01-20 08:39:04,0.12,2.79,0.00,13.33,17.54,21.34,15.50,49.63,1040.61,2069.96,2586.40,2502.60,2804.91,600.23,630.95,42.42,0000 0000 0000 0000 000000
2016-01-20 08:44:05,0.12,2.79,0.00,13.36,17.54,21.36,15.42,49.42,1040.66,2069.99,2584.65,2501.26,2803.47,599.88,630.51,42.47,0000 0000 0000 0000 000000
2016-01-20 08:49:07,0.14,2.80,0.00,13.35,17.56,21.33,15.38,49.56,1040.68,2069.97,2582.75,2499.76,2801.74,599.82,630.50,42.52,0000 0000 0000 0000 000000
2016-01-20 08:54:08,0.12,2.81,0.00,13.35,17.57,21.38,15.49,49.57,1040.63,2069.97,2580.81,2498.30,2800.06,600.25,630.91,42.57,0000 0000 0000 0000 000000
2016-01-20 08:59:09,0.13,2.81,0.00,13.36,17.57,21.39,15.46,49.63,1040.69,2069.91,2578.97,2496.72,2798.36,599.80,630.36,42.62,0000 0000 0000 0000 000000
2016-01-20 09:04:10,0.12,2.82,0.00,13.38,17.57,21.37,15.45,49.50,1040.75,2069.90,2577.12,2495.38,2796.68,600.05,630.72,42.67,0000 0000 0000 0000 000000
2016-01-20 09:09:12,0.11,2.83,0.00,13.40,17.59,21.38,15.37,49.46,1040.65,2069.78,2575.30,2493.93,2795.01,599.80,630.42,42.72,0000 0000 0000 0000 000000
2016-01-20 09:14:13,0.11,2.83,0.00,13.40,17.59,21.38,15.40,49.58,1040.58,2069.63,2573.44,2492.53,2793.37,600.22,630.60,42.77,0000 0000 0000 0000 000000
2016-01-20 09:19:15,0.13,2.84,0.00,13.39,17.59,21.41,15.42,49.45,1040.56,2069.63,2571.57,2491.04,2791.68,599.73,630.26,42.82,0000 0000 0000 0000 000000
2016-01-20 09:24:16,0.15,2.84,0.00,13.40,17.60,21.41,15.42,49.62,1040.55,2069.54,2569.62,2489.51,2789.97,599.80,630.28,42.88,0000 0000 0000 0000 000000
2016-01-20 09:29:17,0.12,2.85,0.00,13.41,17.62,21.44,15.42,49.65,1040.54,2069.49,2567.70,2487.93,2788.26,599.59,630.19,42.93,0000 0000 0000 0000 000000
2016-01-20 09:34:18,0.12,2.86,0.00,13.43,17.62,21.42,15.33,49.44,1040.54,2069.36,2565.79,2486.42,2786.45,599.65,630.14,42.98,0000 0000 0000 0000 000000
2016-01-20 09:39:20,0.13,2.87,0.00,13.44,17.62,21.40,15.45,49.60,1040.54,2069.22,2563.76,2484.84,2784.68,600.55,631.00,43.03,0000 0000 0000 0000 000000
2016-01-20 09:44:22,0.12,2.87,0.00,13.43,17.63,21.44,15.39,49.43,1040.54,2069.20,2561.91,2483.35,2782.98,599.65,630.07,43.08,0000 0000 0000 0000 000000
2016-01-20 09:49:23,0.13,2.88,0.00,13.43,17.64,21.45,15.46,49.58,1040.54,2069.10,2559.96,2481.76,2781.17,600.01,630.48,43.13,0000 0000 0000 0000 000000
2016-01-20 09:54:24,0.12,2.89,0.00,13.46,17.64,21.45,15.40,49.50,1040.54,2069.04,2558.24,2480.22,2779.42,599.79,630.08,43.18,0000 0000 0000 0000 000000
2016-01-20 09:59:25,0.14,2.89,0.00,13.47,17.65,21.45,15.41,49.36,1040.54,2069.03,2556.29,2478.67,2777.64,599.80,630.14,43.23,0000 0000 0000 0000 000000
2016-01-20 10:04:27,0.14,2.90,0.00,13.48,17.66,21.48,15.37,49.49,1040.54,2069.03,2554.31,2477.05,2775.91,599.46,629.82,43.28,0000 0000 0000 0000 000000
2016-01-20 10:09:28,0.14,2.91,0.00,13.48,17.67,21.42,15.37,49.42,1040.54,2069.02,2552.30,2475.45,2774.01,599.89,630.25,43.33,0000 0000 0000 0000 000000
2016-01-20 10:14:29,0.17,2.92,0.00,13.49,17.67,21.47,15.39,49.39,1040.54,2069.02,2550.13,2473.69,2772.06,600.07,630.45,43.38,0000 0000 0000 0000 000000
2016-01-20 10:19:31,0.16,2.92,0.00,13.51,17.67,21.48,15.36,49.57,1040.54,2069.01,2547.84,2471.83,2770.02,600.06,630.33,43.43,0000 0000 0000 0000 000000
2016-01-20 10:24:32,0.15,2.93,0.00,13.51,17.69,21.49,15.38,49.52,1040.53,2069.02,2545.65,2470.13,2768.04,599.86,630.08,43.48,0000 0000 0000 0000 000000
2016-01-20 10:29:33,0.15,2.94,0.00,13.53,17.69,21.50,15.42,49.64,1040.53,2069.01,2543.46,2468.48,2766.17,600.01,630.23,43.53,0000 0000 0000 0000 000000
2016-01-20 10:34:35,0.15,2.95,0.00,13.53,17.69,21.51,15.39,49.49,1040.52,2069.02,2541.33,2466.82,2764.35,600.29,630.38,43.58,0000 0000 0000 0000 000000
2016-01-20 10:39:36,0.14,2.96,0.00,13.57,17.69,21.55,15.46,49.47,1040.53,2069.01,2539.36,2465.22,2762.49,600.15,630.29,43.63,0000 0000 0000 0000 000000
2016-01-20 10:44:37,0.15,2.96,0.00,13.57,17.70,21.54,15.35,49.45,1040.53,2069.01,2537.31,2463.58,2760.62,599.77,629.82,43.68,0000 0000 0000 0000 000000
2016-01-20 10:49:38,0.17,2.97,0.00,13.57,17.72,21.58,15.43,49.60,1040.54,2069.00,2534.99,2461.64,2758.51,600.11,630.28,43.73,0000 0000 0000 0000 000000
2016-01-20 10:54:39,0.17,2.98,0.00,13.58,17.72,21.55,15.35,49.49,1040.54,2069.01,2532.64,2459.80,2756.44,599.52,629.62,43.79,0000 0000 0000 0000 000000
2016-01-20 10:59:41,0.18,2.99,0.00,13.60,17.72,21.57,15.43,49.58,1040.54,2069.00,2530.23,2457.90,2754.25,599.93,630.02,43.84,0000 0000 0000 0000 000000
2016-01-20 11:04:42,0.16,3.00,0.00,13.61,17.73,21.57,15.45,49.54,1040.54,2069.00,2527.92,2455.99,2752.16,599.98,629.98,43.89,0000 0000 0000 0000 000000
2016-01-20 11:09:43,0.17,3.01,0.00,13.62,17.74,21.60,15.40,49.51,1040.52,2069.00,2525.48,2454.08,2750.17,599.84,629.85,43.94,0000 0000 0000 0000 000000
2016-01-20 11:14:44,0.18,3.02,0.00,13.63,17.74,21.58,15.42,49.61,1040.49,2068.99,2522.99,2452.11,2747.97,600.18,630.05,43.99,0000 0000 0000 0000 000000
2016-01-20 11:19:45,0.18,3.03,0.00,13.65,17.75,21.57,15.40,49.53,1040.43,2068.99,2520.48,2450.14,2745.76,600.06,629.95,44.04,0000 0000 0000 0000 000000
2016-01-20 11:24:47,0.18,3.04,0.00,13.64,17.77,21.58,15.42,49.59,1040.26,2068.99,2518.00,2448.16,2743.56,599.94,629.79,44.09,0000 0000 0000 0000 000000
2016-01-20 11:29:48,0.19,3.04,0.00,13.65,17.77,21.57,15.36,49.68,1040.18,2068.99,2515.43,2446.17,2741.31,599.63,629.39,44.14,0000 0000 0000 0000 000000
2016-01-20 11:34:49,0.19,3.05,0.00,13.67,17.77,21.59,15.29,49.59,1040.27,2068.97,2512.76,2444.03,2738.90,599.80,629.54,44.19,0000 0000 0000 0000 000000
2016-01-20 11:39:51,0.20,3.06,0.00,13.68,17.78,21.64,15.44,49.66,1040.32,2068.98,2510.12,2441.94,2736.55,600.25,630.02,44.24,0000 0000 0000 0000 000000
2016-01-20 11:44:53,0.20,3.07,0.00,13.69,17.79,21.61,15.31,49.63,1040.48,2068.98,2507.43,2439.85,2734.15,599.48,629.33,44.29,0000 0000 0000 0000 000000
2016-01-20 11:49:54,0.18,3.08,0.00,13.69,17.79,21.59,15.43,49.58,1040.48,2068.97,2504.82,2437.71,2731.80,600.02,629.89,44.34,0000 0000 0000 0000 000000
2016-01-20 11:54:55,0.19,3.09,0.00,13.69,17.81,21.59,15.43,49.57,1040.52,2068.97,2502.18,2435.60,2729.45,600.01,629.86,44.39,0000 0000 0000 0000 000000
2016-01-20 11:59:56,0.19,3.10,0.00,13.70,17.82,21.64,15.39,49.53,1040.54,2068.96,2499.67,2433.61,2727.16,599.81,629.55,44.44,0000 0000 0000 0000 000000
2016-01-20 12:04:58,0.18,3.11,0.00,13.74,17.82,21.68,15.40,49.61,1040.53,2068.94,2497.16,2431.66,2724.96,599.92,629.73,44.49,0000 0000 0000 0000 000000
2016-01-20 12:09:59,0.17,3.12,0.00,13.74,17.84,21.67,15.38,49.48,1040.48,2068.92,2494.93,2429.77,2722.77,600.05,629.64,44.54,0000 0000 0000 0000 000000
2016-01-20 12:15:01,0.17,3.13,0.00,13.75,17.85,21.66,15.45,49.54,1040.44,2068.89,2492.64,2427.93,2720.62,599.89,629.55,44.59,0000 0000 0000 0000 000000
2016-01-20 12:20:02,0.15,3.14,0.00,13.76,17.87,21.67,15.38,49.57,1040.23,2068.66,2490.24,2425.93,2718.41,600.05,629.50,44.64,0000 0000 0000 0000 000000
2016-01-20 12:25:03,0.16,3.15,0.00,13.78,17.88,21.71,15.38,49.67,1040.13,2068.40,2487.85,2424.04,2716.28,600.15,629.48,44.70,0000 0000 0000 0000 000000
2016-01-20 12:30:04,0.15,3.16,0.00,13.81,17.89,21.72,15.38,49.68,1040.08,2068.16,2485.37,2422.06,2714.08,599.71,628.90,44.75,0000 0000 0000 0000 000000
2016-01-20 12:35:06,0.17,3.16,0.00,13.81,17.92,21.77,15.41,49.62,1040.09,2068.10,2483.00,2420.14,2711.90,600.24,629.57,44.80,0000 0000 0000 0000 000000
2016-01-20 12:40:07,0.16,3.17,0.00,13.84,17.93,21.75,15.40,49.51,1040.17,2068.05,2480.69,2418.30,2709.75,600.12,629.40,44.85,0000 0000 0000 0000 000000
2016-01-20 12:45:08,0.17,3.18,0.00,13.86,17.94,21.78,15.42,49.69,1040.09,2068.02,2478.34,2416.43,2707.65,600.23,629.59,44.90,0000 0000 0000 0000 000000
2016-01-20 12:50:10,0.18,3.19,0.00,13.86,17.96,21.78,15.40,49.77,1040.08,2068.01,2475.91,2414.55,2705.56,599.44,628.61,44.95,0000 0000 0000 0000 000000
2016-01-20 12:55:11,0.17,3.20,0.00,13.86,17.97,21.82,15.38,49.73,1040.08,2068.00,2473.63,2412.70,2703.53,599.91,629.11,45.00,0000 0000 0000 0000 000000